Miscellaneous Local Product
Issued by NWS North Platte, NE

Home | Current Version | Previous Version | Text Only | Print | Product List | Glossary On
Versions: 1 2 3 4 5 6 7 8 9 10 11 12 13 14 15 16 17 18 19 20 21 22 23 24 25 26 27 28 29 30 31 32 33 34 35 36 37 38 39 40 41 42 43 44 45 46 47 48 49 50
000
AXUS43 KLBF 240610
MISLBF


WESTERN AND NORTH CENTRAL NEBRASKA HOURLY WEATHER ROUNDUP
NATIONAL WEATHER SERVICE NORTH PLATTE NE
100 AM CDT TUE APR 24 2018

NOTE: "FAIR" INDICATES FEW OR NO CLOUDS BELOW 12,000 FEET WITH NO
SIGNIFICANT WEATHER AND/OR OBSTRUCTIONS TO VISIBILITY.

NOTE: STATIONS NOT REPORTING VARIABLES SUCH AS SKY/WEATHER OR
PRESSURE ARE PROVIDED BY RAWS AND APRS NETWORKS AND ARE NOT UNDER
NATIONAL WEATHER SERVICE QUALITY CONTROL.

...OBSERVATIONS IN AND NEAR THE EASTERN PANHANDLE OF NEBRASKA...

CITY           SKY/WX    TMP DP  RH WIND       PRES   REMARKS
PINE RIDGE     CLOUDY    40  38  93 N13G21    30.26R WCI  32
GORDON         CLOUDY    41  38  90 NW14      30.22R
CHADRON        CLOUDY    39  33  79 NW16G26   30.28R WCI  30
ALLIANCE       CLOUDY    38  35  89 NW16      30.23R WCI  29
SIDNEY         LGT RAIN  39  36  89 NW24G32   30.25R WCI  28
CRESCENT LAKE    N/A     40  37  88 NW15G24     N/A  WCI  32
$$

...OBSERVATIONS IN NORTHERN NEBRASKA AND FAR SOUTHERN SOUTH DAKOTA...

CITY           SKY/WX    TMP DP  RH WIND       PRES   REMARKS
WINNER         LGT RAIN  57  43  59 W10       30.13R
VALENTINE      LGT RAIN  51  48  89 W20       30.16R
AINSWORTH      CLOUDY    58  41  54 W13       30.15R
O`NEILL        CLOUDY    58  38  48 SE3       30.13R
THEDFORD       RAIN      53  48  85 W14G21    30.19R
BROKEN BOW     CLOUDY    47  41  80 N3        30.13R
ORD            CLOUDY    49  42  77 CALM      30.12R
ALBION         CLOUDY    52  45  75 NW3       30.13R
VALENTINE NWR    N/A     55  46  71 NW12G21     N/A
HALSEY           N/A     53  38  57 S6          N/A
BUTTE            N/A     54  39  57 E10         N/A
CHAMBERS         N/A     53  40  62 CALM        N/A
EWING            N/A     56  38  52 E3          N/A
$$

...OBSERVATIONS IN SOUTHWEST NEBRASKA AND FAR NORTHEAST COLORADO...

CITY           SKY/WX    TMP DP  RH WIND       PRES   REMARKS
WRAY           DRIZZLE   50  50 100 N15       30.17S
HOLYOKE        CLOUDY    46  43  87 N22G32    30.21R
IMPERIAL       LGT RAIN  50  49  96 N13       30.17R
OGALLALA       CLOUDY    49  46  92 N20       30.18R
NORTH PLATTE   CLOUDY    48  41  76 CALM      30.15R
MCCOOK         CLOUDY    50  40  68 NE3       30.13R
LEXINGTON      MOCLDY    46  38  76 CALM      30.14R
STAPLETON        N/A     48  41  78 W3          N/A
GOTHENBURG       N/A     49  37  63 CALM        N/A
CALLAWAY         N/A     48  40  74 SE3         N/A
$$

...OBSERVATIONS IN CENTRAL LINCOLN COUNTY AREA...

CITY           SKY/WX    TMP DP  RH WIND       PRES   REMARKS
N.P. AIRPORT   CLOUDY    48  41  76 CALM      30.15R
N.P. DOWNTOWN    N/A     54  42  64 W3          N/A
N.P. SOUTHEAST   N/A     55  41  59 MISG        N/A
N.P. HILLCREST   N/A     55  43  64 W10G18      N/A
$$

...OBSERVATIONS ACROSS THE ROCKIES AND WESTERN HIGH PLAINS...

CITY           SKY/WX    TMP DP  RH WIND       PRES   REMARKS
RAPID CITY     CLOUDY    37  32  82 NW38G49   30.24R WCI  23
SCOTTSBLUFF    CLOUDY    39  35  86 NW20G28   30.31R WCI  29
CHEYENNE       CLOUDY    32  30  92 MISG      30.28R
DENVER         CLOUDY    40  33  76 N18G29    30.28R WCI  31
BERTHOUD PASS  CLOUDY    28  18  64 W14       30.39S WCI  17
MONARCH PASS   PTCLDY    34  19  55 W31G40    30.46F WCI  20
ASPEN          CLOUDY    49  30  48 W8        30.27R
STEAMBOAT      CLOUDY    44  36  73 SE3       30.21R
LARAMIE        CLOUDY    33  30  88 NW17      30.28R WCI  22
CASPER         CLOUDY    32  27  81 N17       30.40R WCI  21
$$

...OBSERVATIONS ACROSS THE NORTHERN PLAINS...

CITY           SKY/WX    TMP DP  RH WIND       PRES   REMARKS
BISMARCK       LGT RAIN  43  39  86 N21G29    30.28R
FARGO          CLOUDY    49  40  71 NW13      30.19S
PIERRE         CLOUDY    54  44  69 SE14      30.06S
SIOUX FALLS    PTCLDY    46  39  76 NE3       30.13F
$$

...OBSERVATIONS ACROSS THE CENTRAL AND SOUTHERN PLAINS...

CITY           SKY/WX    TMP DP  RH WIND       PRES   REMARKS
OMAHA          PTCLDY    54  34  46 NW3       30.11R
GRAND ISLAND   CLOUDY    51  40  65 CALM      30.13R
KANSAS CITY    CLEAR     56  31  38 NE5       30.05F
WICHITA        PTCLDY    56  45  66 CALM      30.06R
DODGE CITY     CLEAR     47  41  80 SE7       30.07S
OKLAHOMA CITY  PTCLDY    58  47  66 NE5       30.05F
DALLAS         CLEAR     63  51  65 NW7       30.03S
AMARILLO       CLEAR     53  42  66 SE15      30.06S
$$




USA.gov is the U.S. government's official web portal to all federal, state and local government web resources and services.